User: anonymous   Login
Location: Unspecified
(0.0000°N, 0.0000°E)
Time: 22:19:38
(UTC+00:00)
Language:

Okean 3 - Orbit

View from above orbital plane
View from above orbital plane
View from above satellite
View from above satellite

Ground track
Ground track

The orbit data is extracted from the following two-line orbital elements,

1 21397U 91039A   19138.71976266  .00000232  00000-0  19838-4 0  9990
2 21397  82.5228 192.8138 0019220  57.1536 303.1531 14.92801304514282
Epoch (UTC): 18 May 2019 17:16:27
Eccentricity: 0.0019220
inclination: 82.5228°
perigee height: 576 km
apogee height: 602 km
right ascension of ascending node: 192.8138°
argument of perigee: 57.1536°
revolutions per day: 14.92801304
mean anomaly at epoch: 303.1531°
orbit number at epoch: 51428

The dashed part of the orbit path shows where the satellite is in the earth's shadow,  

DLR